Weather History for Imperial, NE

Change the Weather History Date:

Saturday, May 18, 2013

  Actual Average Record
Temperature  
Mean Temperature 70 °F 61 °F  
Max Temperature 84 °F 74 °F 101 °F (1934)
Min Temperature 56 °F 47 °F 24 °F (1907)
Degree Days  
Heating Degree Days 0 6  
Month to date heating degree days 164 150  
Cooling Degree Days 5 1  
Month to date cooling degree days 40 14  
Year to date cooling degree days 42 15  
Growing Degree Days 20 (Base 50)    
Moisture  
Dew Point 58 °F    
Average Humidity 67    
Maximum Humidity 87    
Minimum Humidity 47    
Precipitation  
Precipitation 0.62 in 0.09 in 1.42 in (1959)
Sea Level Pressure  
Sea Level Pressure 29.70 in    
Wind  
Wind Speed 11 mph (ESE)    
Max Wind Speed 36 mph    
Max Gust Speed 47 mph    
Visibility 8 miles    
Events Rain , Thunderstorm    
T = Trace of Precipitation, MM = Missing Value Source: NWS Daily Summary

Daily Weather History Graph

Daily Weather History Graph

Search for Another Location

Airport:

Trip Planner

Search our weather history database for the weather conditions in past years. The results will help you decide how hot, cold, wet, or windy it might be!

Date:

Astronomy

May. 18, 2013 Rise Set
Actual Time 5:26 AM MDT 7:59 PM MDT
Civil Twilight 4:55 AM MDT 8:30 PM MDT
Nautical Twilight 4:16 AM MDT 9:09 PM MDT
Astronomical Twilight 3:33 AM MDT 9:53 PM MDT
Moon 1:03 PM MDT (5/18) 1:22 AM MDT (5/18)
Length of Visible Light 15h 35m
Length of Day
14h 32m
First Quarter, 56% of the Moon is Illuminated
May 18
First Quarter
May 24
Full
May 31
Last Quarter
Jun 8
New
Jun 16
First Quarter

Hourly Weather History & Observations

Time (MDT) Temp. Heat Index Dew Point Humidity Pressure Visibility Wind Dir Wind Speed Gust Speed Precip Events Conditions
12:28 AM 66.2 °F - 62.6 °F 88% 29.80 in 10.0 mi South 21.9 mph - N/A   Overcast
12:53 AM 66.9 °F - 62.1 °F 84% 29.69 in 10.0 mi SSE 15.0 mph - N/A   Overcast
1:40 AM 66.2 °F - 62.6 °F 88% 29.78 in 10.0 mi South 18.4 mph 25.3 mph N/A   Overcast
1:53 AM 66.9 °F - 62.1 °F 84% 29.68 in 10.0 mi South 15.0 mph 24.2 mph N/A   Overcast
2:07 AM 66.2 °F - 62.6 °F 88% 29.77 in 10.0 mi South 21.9 mph 31.1 mph N/A   Overcast
2:50 AM 64.4 °F - 60.8 °F 88% 29.77 in 9.0 mi SSE 15.0 mph - N/A   Scattered Clouds
2:53 AM 64.0 °F - 61.0 °F 90% 29.66 in 9.0 mi SSE 15.0 mph - N/A   Scattered Clouds
3:12 AM 64.4 °F - 60.8 °F 88% 29.77 in 8.0 mi SSE 12.7 mph - N/A   Mostly Cloudy
3:48 AM 64.4 °F - 60.8 °F 88% 29.77 in 7.0 mi SSE 9.2 mph - N/A   Overcast
3:53 AM 64.9 °F - 61.0 °F 87% 29.67 in 7.0 mi SSE 6.9 mph - N/A   Overcast
4:14 AM 64.4 °F - 60.8 °F 88% 29.76 in 8.0 mi SSE 10.4 mph - N/A   Overcast
4:46 AM 64.4 °F - 60.8 °F 88% 29.76 in 7.0 mi SSE 10.4 mph - N/A   Overcast
4:53 AM 64.9 °F - 61.0 °F 87% 29.66 in 7.0 mi SSE 11.5 mph - N/A   Overcast
5:39 AM 64.4 °F - 60.8 °F 88% 29.77 in 7.0 mi SE 5.8 mph - N/A   Overcast
5:53 AM 64.9 °F - 61.0 °F 87% 29.68 in 7.0 mi ESE 6.9 mph - N/A   Overcast
6:53 AM 64.9 °F - 61.0 °F 87% 29.69 in 5.0 mi ESE 11.5 mph - N/A   Overcast
7:13 AM 64.4 °F - 60.8 °F 88% 29.79 in 5.0 mi ESE 11.5 mph - N/A   Overcast
7:53 AM 66.9 °F - 62.1 °F 84% 29.70 in 6.0 mi SE 10.4 mph - N/A   Haze
8:53 AM 69.1 °F - 60.1 °F 73% 29.71 in 5.0 mi East 5.8 mph - N/A   Haze
9:53 AM 70.0 °F - 60.1 °F 71% 29.71 in 9.0 mi Calm Calm - N/A   Mostly Cloudy
10:53 AM 73.9 °F - 59.0 °F 59% 29.71 in 10.0 mi NE 6.9 mph - N/A   Mostly Cloudy
11:17 AM 73.4 °F - 59.0 °F 61% 29.79 in 10.0 mi ESE 4.6 mph - N/A   Mostly Cloudy
11:53 AM 77.0 °F - 60.1 °F 56% 29.68 in 10.0 mi ENE 8.1 mph - N/A   Partly Cloudy
12:53 PM 78.8 °F - 60.8 °F 54% 29.76 in 10.0 mi SE 4.6 mph - N/A   Scattered Clouds
1:53 PM 80.1 °F 80.9 °F 60.1 °F 50% 29.65 in 10.0 mi South 10.4 mph - N/A   Mostly Cloudy
2:53 PM 82.0 °F 82.7 °F 61.0 °F 49% 29.62 in 10.0 mi ESE 15.0 mph 19.6 mph N/A   Clear
3:53 PM 81.0 °F 81.7 °F 61.0 °F 50% 29.58 in 10.0 mi ESE 13.8 mph 18.4 mph N/A   Partly Cloudy
4:53 PM 80.1 °F 81.2 °F 62.1 °F 54% 29.54 in 10.0 mi SE 15.0 mph - N/A   Partly Cloudy
5:44 PM 75.2 °F - 62.6 °F 65% 29.65 in 10.0 mi ESE 18.4 mph 25.3 mph N/A Thunderstorm Thunderstorm
5:53 PM 75.0 °F - 63.0 °F 66% 29.56 in 8.0 mi SSE 20.7 mph 27.6 mph N/A Thunderstorm Thunderstorm
6:08 PM 69.8 °F - 64.4 °F 83% 29.61 in 3.0 mi SE 19.6 mph 47.2 mph 0.03 in Rain , Thunderstorm Light Thunderstorms and Rain
6:53 PM 68.0 °F - 53.1 °F 59% 29.59 in 9.0 mi West 13.8 mph 23.0 mph 0.04 in Rain , Thunderstorm Light Thunderstorms and Rain
7:37 PM 57.2 °F - 51.8 °F 82% 29.73 in 1.8 mi Variable 4.6 mph 23.0 mph 0.33 in Rain , Thunderstorm Heavy Thunderstorms and Rain
7:46 PM 59.0 °F - 51.8 °F 77% 29.71 in 3.0 mi NNE 11.5 mph - 0.40 in Rain , Thunderstorm Thunderstorms and Rain
7:53 PM 60.1 °F - 53.1 °F 78% 29.62 in 7.0 mi NNE 11.5 mph - 0.42 in Rain , Thunderstorm Light Thunderstorms and Rain
8:08 PM 59.0 °F - 53.6 °F 82% 29.69 in 6.0 mi North 16.1 mph - 0.04 in Rain Rain
8:53 PM 57.0 °F - 53.1 °F 87% 29.68 in 10.0 mi NNE 18.4 mph - 0.05 in   Clear
9:08 PM 57.2 °F - 51.8 °F 82% 29.76 in 10.0 mi NNE 16.1 mph - N/A Thunderstorm Thunderstorm
9:28 PM 57.2 °F - 51.8 °F 82% 29.75 in 10.0 mi NNE 11.5 mph - N/A   Scattered Clouds
9:38 PM 57.2 °F - 51.8 °F 82% 29.76 in 10.0 mi North 13.8 mph - N/A Thunderstorm Mostly Cloudy
9:53 PM 57.9 °F - 51.1 °F 78% 29.69 in 10.0 mi North 15.0 mph - N/A Thunderstorm Mostly Cloudy
10:03 PM 57.2 °F - 51.8 °F 82% 29.75 in 10.0 mi NNW 15.0 mph - N/A   Mostly Cloudy
10:10 PM 57.2 °F - 51.8 °F 82% 29.75 in 10.0 mi North 17.3 mph - N/A Thunderstorm Overcast
10:20 PM 57.2 °F - 51.8 °F 82% 29.74 in 10.0 mi North 16.1 mph - N/A Thunderstorm Overcast
10:53 PM 59.0 °F - 51.1 °F 75% 29.68 in 10.0 mi North 16.1 mph - 0.00 in Rain , Thunderstorm Light Thunderstorms and Rain
11:53 PM 55.9 °F - 53.1 °F 90% 29.68 in 5.0 mi NE 9.2 mph - 0.11 in Rain Light Rain